Regional Weather Roundup
Issued by NWS Charleston, SC

Current Version | Previous Version | Graphics & Text | Print | Product List | Glossary On
Versions: 1 2 3 4 5 6 7 8 9 10 11 12 13 14 15 16 17 18 19 20 21 22 23 24 25 26 27 28 29 30 31 32 33 34 35 36 37 38 39 40 41 42 43 44 45 46 47 48 49 50
000 ASUS42 KCHS 192210 RWRCHS REGIONAL WEATHER ROUNDUP NATIONAL WEATHER SERVICE CHARLESTON SC 600 PM EDT SUN OCT 19 2014 NOTE: "FAIR" INDICATES FEW OR NO CLOUDS BELOW 12,000 FEET WITH NO SIGNIFICANT WEATHER AND/OR OBSTRUCTIONS TO VISIBILITY. NOT ALL STATIONS ARE QUALITY CONTROLLED BY THE NATIONAL WEATHER SERVICE. USE DATA WITH CAUTION...ESPECIALLY DEWPOINT OBSERVATIONS. SCZ027-030-031-034>040-042>050-192300- ...SOUTH CAROLINA... CITY SKY/WX TMP DP RH WIND PRES REMARKS N CHARLESTON MOCLDY 69 47 45 N3 30.08R WATERFRONT PRK N/A 70 N/A N/A N6 N/A FORT JOHNSON NOT AVBL JOHNS ISLAND CLEAR 68 52 56 CALM 30.08R PINOPOLIS N/A 73 48 40 CALM 30.00S MONCKS CORNER FAIR 66 54 63 CALM 30.07S SUMMERVILLE FAIR 66 54 63 CALM 30.08S BEAUFORT MCAS PTCLDY 71 48 43 NE5 30.08R BEAUFORT ARPT FAIR 70 50 49 NW5 30.07S HILTON HEAD IS CLEAR 68 52 56 CALM 30.09 GEORGETOWN NOT AVBL WALTERBORO PTCLDY 70 43 37 CALM 30.08S ORANGEBURG PTCLDY 70 45 40 CALM 30.07S BARNWELL FAIR 70 46 43 CALM 30.08R AIKEN FAIR 68 50 52 NE5 30.10S MANNING FAIR 68 54 60 CALM 30.07S KINGSTREE NOT AVBL COLUMBIA PTCLDY 70 44 39 CALM 30.06S SUMTER CLEAR 68 44 42 CALM 30.06R FLORENCE CLEAR 68 45 43 NE6 30.07S MYRTLE BEACH CLEAR 70 43 37 N9 30.07 N MYRTLE BEACH CLEAR 67 46 47 N3 30.06S $$ GAZ063-065-086>088-099>101-113>116-118-119-134-136>141-150-192300- ...GEORGIA... CITY SKY/WX TMP DP RH WIND PRES REMARKS SAVANNAH ARPT MOCLDY 73 47 39 VRB3 30.08R HUNTER AAF CLEAR 71 49 46 W5 30.06R FORT STEWART CLEAR 71 49 46 CALM 30.06S STATESBORO NOT AVBL SYLVANIA CLEAR 76 53 43 CALM 30.08S CLAXTON FAIR 70 52 52 CALM 30.07S THOMSON PTCLDY 70 56 59 CALM 30.11S AUGUSTA-BUSH PTCLDY 71 44 37 CALM 30.06S AUGUSTA-DANIEL PTCLDY 72 44 36 NW3 30.07S SWAINSBORO FAIR 75 46 35 MISG 30.07S VIDALIA CLEAR 72 50 46 CALM 30.07S ALMA SUNNY 72 48 42 E3 30.06S WAYCROSS SUNNY 76 54 46 SE5 30.05S JESUP FAIR 73 54 49 E5 30.06S BRUNSWICK CLEAR 70 52 52 E7 30.08R SAINT SIMONS CLEAR 67 52 58 E9 30.07S $$ SCZ027-028-034-036>038-045-046-048>050-GAZ119-141-192300- ...LAKE AND SUPPLEMENTAL COASTAL OBSERVATIONS... STATION/POSITION TIME TEMP WIND PRES WAVE SWELL AIR SEA DIR/SP/G HT/PER HT/PER/DIR (UTC) (F) (DEG/KT/KT) (MB) (FT/S) (FT/S/D) UPR LAKE MARION NOT AVBL WINYAH BAY 2100 68 320/ 5 1018.0S LAKE MURRAY 2100 69 200/ 5/ 6 1017.6S ACE BASIN NERRS 2100 71 10/ 2 1018.0S FORT PULASKI 2200 69 100/ 5/ 7 1018.6S SAPELO ISLAND NOT AVBL $$ ANZ835-935-AMZ111-154-330-350-352-354-374-450-454-472-192300- ...C-MAN AND BUOY OBSERVATIONS... STATION/POSITION TIME TEMP WIND PRES WAVE SWELL AIR SEA DIR/SP/G HT/PER HT/PER/DIR (UTC) (F) (DEG/KT/KT) (MB) (FT/S) (FT/S/D) FOLLY BEACH CMAN 2100 68 350/ 4/ 6 1018.6S BUOY 41004 2200 67 79 360/ 8/ 14 1017.8R 4/ 7 3/ 7 BUOY 41008 2200 68 76 40/ 10/ 14 1018.2S 4/ 7 3/ 70/ 7 5E ST. MARYS GA 2200 78 N/A 4/ 6 2/ 90/13 FRYING PAN BUOY 2200 65 76 350/ 10/ 14 1018.5R 3/13 3/ 90/13 BUOY 41025 2200 63 330/ 14/ 19 1017.2R 4/ 6 3/ 20/11 CAPE LOOKOUT NC 2100 64 350/ 10/ 15 1017.3R BUOY 41002 2113 71 80 360/ 16/ 19 1016.4R 7/ 7 5/320/ 7 BUOY 41010 2200 78 81 40/ 16/ 17 1015.3R 4/ 6 2/ 60/12 BUOY 41012 NOT AVBL ST AUGUSTINE FL 2200 73 30/ 15/ 18 1017.8R CAPERS NEARSHORE 2100 70 10/ 6/ 8 N/A FRIPP NEARSHORE NOT AVBL $$

USA.gov is the U.S. government's official web portal to all federal, state and local government web resources and services.